GW1859 Weather Reports


Display with metric or nautical units.
time (UTC)temp
F
wind
direction
speed
MPH
gust
MPH
rain 1hr
in
rain 24hr
in
rain mn
in
humidity
%
barometer
mb
20260508004154 74 132 0.0 1.0 0.00 0.00 0.00 31 1011.7
20260508003651 75 141 0.0 0.0 0.00 0.00 0.00 30 1011.7
20260508003149 76 157 3.0 3.0 0.00 0.00 0.00 29 1011.5
20260508002645 77 161 3.0 5.0 0.00 0.00 0.00 28 1011.8
20260508002143 77 216 3.0 3.0 0.00 0.00 0.00 27 1011.5
20260508001638 78 161 1.0 2.0 0.00 0.00 0.00 27 1011.5
20260508001134 78 243 2.0 2.0 0.00 0.00 0.00 27 1011.6
20260508000630 78 165 0.0 1.0 0.00 0.00 0.00 26 1011.5
20260508000128 78 229 2.0 3.0 0.00 0.00 0.00 26 1011.8
20260507235624 78 154 3.0 3.0 0.00 0.00 0.00 26 1011.7
20260507235122 79 184 1.0 2.0 0.00 0.00 0.00 26 1011.6
20260507234618 79 193 1.0 1.0 0.00 0.00 0.00 26 1012.0
20260507234115 79 190 1.0 1.0 0.00 0.00 0.00 26 1011.8
20260507233612 79 156 2.0 3.0 0.00 0.00 0.00 26 1011.5
20260507233110 79 139 2.0 3.0 0.00 0.00 0.00 26 1011.8
20260507232606 79 231 1.0 2.0 0.00 0.00 0.00 26 1011.7
20260507232104 79 172 3.0 5.0 0.00 0.00 0.00 25 1011.8
20260507231600 80 180 3.0 3.0 0.00 0.00 0.00 25 1012.0
20260507231057 79 174 2.0 2.0 0.00 0.00 0.00 26 1012.0
20260507230553 80 151 2.0 3.0 0.00 0.00 0.00 26 1012.1
20260507230050 80 275 1.0 2.0 0.00 0.00 0.00 26 1011.8
20260507225545 80 138 4.0 5.0 0.00 0.00 0.00 26 1012.1
20260507225042 80 212 3.0 6.0 0.00 0.00 0.00 26 1012.3
20260507224537 80 157 0.0 1.0 0.00 0.00 0.00 26 1012.3
20260507224034 80 267 5.0 6.0 0.00 0.00 0.00 26 1012.2
20260507223531 79 202 3.0 5.0 0.00 0.00 0.00 26 1012.3
20260507223028 79 154 0.0 1.0 0.00 0.00 0.00 28 1012.4
20260507222525 79 222 3.0 5.0 0.00 0.00 0.00 27 1012.4
20260507222021 79 225 3.0 6.0 0.00 0.00 0.00 27 1012.5
20260507221517 79 237 3.0 3.0 0.00 0.00 0.00 27 1012.7
20260507221015 79 183 1.0 1.0 0.00 0.00 0.00 27 1012.7
20260507220512 79 158 1.0 2.0 0.00 0.00 0.00 28 1012.8
20260507220009 79 268 5.0 7.0 0.00 0.00 0.00 26 1012.6
20260507215505 79 207 2.0 3.0 0.00 0.00 0.00 27 1012.8
20260507215003 78 229 4.0 6.0 0.00 0.00 0.00 28 1012.6
20260507214500 78 189 3.0 5.0 0.00 0.00 0.00 29 1012.7
20260507213955 78 199 8.0 11.0 0.00 0.00 0.00 28 1012.9
20260507213452 78 92 2.0 5.0 0.00 0.00 0.00 29 1012.9
20260507212949 78 229 5.0 6.0 0.00 0.00 0.00 28 1013.0
20260507212444 79 233 1.0 1.0 0.00 0.00 0.00 29 1013.1
20260507211942 78 142 2.0 2.0 0.00 0.00 0.00 30 1013.3
20260507211438 77 217 3.0 5.0 0.00 0.00 0.00 30 1013.2
20260507210935 77 198 3.0 5.0 0.00 0.00 0.00 30 1013.3
20260507210432 77 259 4.0 6.0 0.00 0.00 0.00 29 1013.6
20260507205929 77 242 4.0 6.0 0.00 0.00 0.00 30 1013.5
20260507205426 77 256 1.0 2.0 0.00 0.00 0.00 29 1013.4
20260507204922 77 257 7.0 9.0 0.00 0.00 0.00 30 1013.7
20260507204418 76 201 1.0 2.0 0.00 0.00 0.00 31 1013.9
20260507203916 76 327 4.0 5.0 0.00 0.00 0.00 30 1014.0
20260507203414 76 102 2.0 2.0 0.00 0.00 0.00 32 1014.2
20260507202910 76 176 2.0 3.0 0.00 0.00 0.00 32 1013.9
20260507202407 75 232 6.0 7.0 0.00 0.00 0.00 32 1014.3
20260507201902 75 196 2.0 3.0 0.00 0.00 0.00 31 1014.1
20260507201358 75 136 3.0 5.0 0.00 0.00 0.00 32 1014.6
20260507200854 75 138 4.0 6.0 0.00 0.00 0.00 32 1014.6
20260507200350 75 178 2.0 2.0 0.00 0.00 0.00 33 1014.7
20260507195847 74 230 4.0 6.0 0.00 0.00 0.00 33 1015.1
20260507195344 75 186 2.0 2.0 0.00 0.00 0.00 34 1015.2
20260507194841 74 226 5.0 7.0 0.00 0.00 0.00 34 1014.9
20260507194338 73 233 5.0 7.0 0.00 0.00 0.00 33 1015.1
20260507193834 73 289 3.0 5.0 0.00 0.00 0.00 35 1015.4
20260507193332 73 255 2.0 3.0 0.00 0.00 0.00 34 1015.4
20260507192827 73 271 4.0 6.0 0.00 0.00 0.00 35 1015.2
20260507192324 72 246 3.0 5.0 0.00 0.00 0.00 35 1015.3
20260507191821 71 335 3.0 3.0 0.00 0.00 0.00 35 1015.6
20260507191317 71 176 3.0 3.0 0.00 0.00 0.00 36 1015.5
20260507190814 72 180 4.0 6.0 0.00 0.00 0.00 35 1015.5
20260507190312 71 194 4.0 7.0 0.00 0.00 0.00 34 1015.6
20260507185811 72 196 4.0 6.0 0.00 0.00 0.00 35 1015.8
20260507185307 71 271 5.0 6.0 0.00 0.00 0.00 35 1015.9
20260507184804 72 132 1.0 2.0 0.00 0.00 0.00 36 1016.0
20260507184302 70 342 2.0 3.0 0.00 0.00 0.00 37 1016.1
20260507183759 70 210 2.0 3.0 0.00 0.00 0.00 38 1016.0
20260507183256 69 321 3.0 5.0 0.00 0.00 0.00 37 1016.2
20260507182753 69 218 3.0 5.0 0.00 0.00 0.00 37 1016.2
20260507182248 70 225 3.0 5.0 0.00 0.00 0.00 38 1016.1
20260507181745 70 213 2.0 3.0 0.00 0.00 0.00 39 1016.4
20260507181241 68 224 2.0 2.0 0.00 0.00 0.00 39 1016.6
20260507180738 69 194 5.0 8.0 0.00 0.00 0.00 40 1016.7
20260507180235 68 183 3.0 5.0 0.00 0.00 0.00 39 1016.7
20260507175730 69 202 4.0 7.0 0.00 0.00 0.00 40 1016.5
20260507175228 69 352 2.0 2.0 0.00 0.00 0.00 40 1017.0
20260507174725 68 223 4.0 5.0 0.00 0.00 0.00 43 1017.0
20260507174223 67 233 5.0 8.0 0.00 0.00 0.00 41 1017.0
20260507173720 66 192 3.0 3.0 0.00 0.00 0.00 42 1017.2
20260507173217 66 174 2.0 2.0 0.00 0.00 0.00 42 1017.4
20260507172714 66 225 4.0 5.0 0.00 0.00 0.00 44 1017.4
20260507172210 66 191 7.0 10.0 0.00 0.00 0.00 44 1017.5
20260507171705 66 220 3.0 5.0 0.00 0.00 0.00 45 1017.5
20260507171203 66 280 3.0 3.0 0.00 0.00 0.00 45 1017.7
20260507170659 66 313 2.0 3.0 0.00 0.00 0.00 48 1017.9
20260507170156 65 222 6.0 9.0 0.00 0.00 0.00 46 1017.8
20260507165652 64 211 3.0 3.0 0.00 0.00 0.00 47 1018.0
20260507165148 64 225 4.0 8.0 0.00 0.00 0.00 49 1018.2
20260507164644 64 192 8.0 11.0 0.00 0.00 0.00 48 1018.3
20260507164142 63 143 3.0 5.0 0.00 0.00 0.00 50 1018.4
20260507163638 63 213 5.0 7.0 0.00 0.00 0.00 49 1018.5
20260507163137 64 218 4.0 5.0 0.00 0.00 0.00 50 1018.5
20260507162632 63 321 3.0 3.0 0.00 0.00 0.00 52 1018.5
20260507162128 63 258 4.0 7.0 0.00 0.00 0.00 52 1018.4
20260507161625 62 271 5.0 11.0 0.00 0.00 0.00 53 1018.5
20260507161122 62 115 4.0 6.0 0.00 0.00 0.00 52 1018.7
20260507160618 61 175 2.0 3.0 0.00 0.00 0.00 55 1018.8
20260507160114 61 215 7.0 13.0 0.00 0.00 0.00 55 1018.7
20260507155609 61 234 1.0 3.0 0.00 0.00 0.00 56 1018.9
20260507155107 61 213 4.0 6.0 0.00 0.00 0.00 56 1018.7
20260507154604 61 192 4.0 8.0 0.00 0.00 0.00 56 1018.7
20260507154101 60 167 2.0 3.0 0.00 0.00 0.00 58 1018.7
20260507153557 60 166 7.0 11.0 0.00 0.00 0.00 56 1018.6
20260507153054 60 189 4.0 7.0 0.00 0.00 0.00 57 1018.7
20260507152550 60 185 3.0 3.0 0.00 0.00 0.00 58 1018.9
20260507152046 60 202 5.0 7.0 0.00 0.00 0.00 58 1018.9
20260507151542 60 258 3.0 5.0 0.00 0.00 0.00 59 1018.8
20260507151040 59 172 1.0 2.0 0.00 0.00 0.00 60 1019.1
20260507150537 58 248 4.0 5.0 0.00 0.00 0.00 63 1019.2
20260507150033 58 173 2.0 2.0 0.00 0.00 0.00 62 1019.3
20260507145528 58 223 5.0 7.0 0.00 0.00 0.00 63 1019.3
20260507145026 57 246 3.0 5.0 0.00 0.00 0.00 64 1019.2
20260507144522 57 218 4.0 5.0 0.00 0.00 0.00 66 1019.2
20260507144020 56 200 2.0 2.0 0.00 0.00 0.00 67 1019.3
20260507143517 56 267 3.0 3.0 0.00 0.00 0.00 67 1019.3
20260507143015 55 214 2.0 2.0 0.00 0.00 0.00 69 1019.6
20260507142509 55 242 4.0 7.0 0.00 0.00 0.00 69 1019.7
20260507142007 54 170 4.0 7.0 0.00 0.00 0.00 70 1019.8
20260507141503 54 98 3.0 3.0 0.00 0.00 0.00 71 1019.8
20260507140959 54 155 2.0 3.0 0.00 0.00 0.00 71 1019.9
20260507140456 54 233 3.0 5.0 0.00 0.00 0.00 73 1019.8
20260507135954 53 249 4.0 5.0 0.00 0.00 0.00 73 1019.9
20260507135450 53 154 3.0 5.0 0.00 0.00 0.00 75 1019.9
20260507134948 52 191 2.0 3.0 0.00 0.00 0.00 77 1019.9
20260507134444 52 154 1.0 1.0 0.00 0.00 0.00 78 1019.8
20260507133940 51 283 3.0 5.0 0.00 0.00 0.00 80 1020.0
20260507133436 51 182 1.0 1.0 0.00 0.00 0.00 80 1020.1
20260507132935 50 165 1.0 1.0 0.00 0.00 0.00 82 1019.9
20260507132431 50 258 2.0 3.0 0.00 0.00 0.00 83 1020.2
20260507131927 49 170 1.0 2.0 0.00 0.00 0.00 85 1020.1
20260507131425 49 263 2.0 3.0 0.00 0.00 0.00 85 1020.1
20260507130922 48 173 0.0 1.0 0.00 0.00 0.00 86 1019.9
20260507130419 48 225 2.0 2.0 0.00 0.00 0.00 86 1020.2
20260507125917 48 185 2.0 2.0 0.00 0.00 0.00 87 1020.1
20260507125415 47 178 0.0 0.0 0.00 0.00 0.00 89 1020.0
20260507124912 46 147 0.0 0.0 0.00 0.00 0.00 91 1020.0
20260507124408 45 154 0.0 0.0 0.00 0.00 0.00 91 1019.9
20260507123907 45 171 0.0 1.0 0.00 0.00 0.00 92 1020.1
20260507123403 44 183 2.0 2.0 0.00 0.00 0.00 92 1019.8
20260507122900 44 149 0.0 0.0 0.00 0.00 0.00 93 1020.0
20260507122355 43 141 0.0 0.0 0.00 0.00 0.00 93 1019.8
20260507121852 43 146 0.0 0.0 0.00 0.00 0.00 93 1019.7
20260507121347 42 141 0.0 0.0 0.00 0.00 0.00 93 1019.9
20260507120844 42 137 0.0 0.0 0.00 0.00 0.00 93 1019.9
20260507120340 41 136 0.0 0.0 0.00 0.00 0.00 93 1019.7
20260507115837 41 136 0.0 0.0 0.00 0.00 0.00 92 1019.8
20260507115332 41 136 0.0 0.0 0.00 0.00 0.00 92 1019.7
20260507114828 41 136 0.0 0.0 0.00 0.00 0.00 92 1020.0
20260507114326 41 136 0.0 0.0 0.00 0.00 0.00 92 1019.5
20260507113823 41 136 0.0 0.0 0.00 0.00 0.00 92 1019.7
20260507113320 41 136 0.0 0.0 0.00 0.00 0.00 91 1019.6
20260507112818 42 136 0.0 0.0 0.00 0.00 0.00 91 1019.7
20260507112314 42 137 0.0 0.0 0.00 0.00 0.00 91 1019.8
20260507111812 42 137 0.0 0.0 0.00 0.00 0.00 91 1019.7
20260507111308 43 138 0.0 0.0 0.00 0.00 0.00 91 1019.7
20260507110804 43 140 0.0 0.0 0.00 0.00 0.00 91 1019.5
20260507110301 43 139 0.0 0.0 0.00 0.00 0.00 91 1019.6
20260507105758 44 139 0.0 0.0 0.00 0.00 0.00 91 1019.6
20260507105254 44 140 0.0 0.0 0.00 0.00 0.00 90 1019.5
20260507104752 44 141 0.0 0.0 0.00 0.00 0.00 90 1019.5
20260507104248 44 139 0.0 0.0 0.00 0.00 0.00 90 1019.3
20260507103744 44 139 0.0 0.0 0.00 0.00 0.00 90 1019.8
20260507103240 44 142 0.0 0.0 0.00 0.00 0.00 90 1019.7
20260507102737 45 140 0.0 0.0 0.00 0.00 0.00 89 1019.7
20260507102234 45 142 0.0 0.0 0.00 0.00 0.00 89 1019.8
20260507101730 45 141 0.0 0.0 0.00 0.00 0.00 89 1020.1
20260507101225 45 140 0.0 0.0 0.00 0.00 0.00 89 1019.9
20260507100722 45 136 0.0 0.0 0.00 0.00 0.00 89 1020.0
20260507100221 45 137 0.0 0.0 0.00 0.00 0.00 89 1020.3
20260507095718 45 135 0.0 0.0 0.00 0.00 0.00 89 1020.1
20260507095215 45 136 0.0 0.0 0.00 0.00 0.00 89 1020.1
20260507094712 45 136 0.0 0.0 0.00 0.00 0.00 89 1020.0
20260507094209 45 138 0.0 0.0 0.00 0.00 0.00 89 1019.8
20260507093705 45 137 0.0 0.0 0.00 0.00 0.00 89 1020.0
20260507093204 46 138 0.0 0.0 0.00 0.00 0.00 89 1020.1
20260507092701 46 139 0.0 0.0 0.00 0.00 0.00 89 1020.2
20260507092157 46 139 0.0 0.0 0.00 0.00 0.00 89 1019.9
20260507091654 46 144 0.0 0.0 0.00 0.00 0.00 89 1020.3
20260507091150 46 131 0.0 0.0 0.00 0.00 0.00 89 1020.3
20260507090645 47 131 0.0 0.0 0.00 0.00 0.00 88 1020.1
20260507090143 47 131 0.0 0.0 0.00 0.00 0.00 88 1020.2
20260507085640 47 141 0.0 0.0 0.00 0.00 0.00 88 1020.3
20260507085137 47 135 0.0 0.0 0.00 0.00 0.00 88 1020.2
20260507084634 48 135 0.0 0.0 0.00 0.00 0.00 87 1020.2
20260507084130 48 135 0.0 0.0 0.00 0.00 0.00 86 1020.1
20260507083627 48 145 0.0 0.0 0.00 0.00 0.00 85 1019.9
20260507083124 49 130 0.0 0.0 0.00 0.00 0.00 85 1020.0
20260507082619 49 133 0.0 0.0 0.00 0.00 0.00 84 1020.3
20260507082116 50 134 0.0 0.0 0.00 0.00 0.00 83 1020.0
20260507081613 50 140 0.0 0.0 0.00 0.00 0.00 82 1020.3
20260507081109 50 134 0.0 0.0 0.00 0.00 0.00 82 1020.2
20260507080606 50 133 0.0 0.0 0.00 0.00 0.00 82 1020.6
20260507075557 50 140 0.0 0.0 0.00 0.00 0.00 82 1020.4
20260507075054 50 134 0.0 0.0 0.00 0.00 0.00 82 1020.5
20260507074551 50 130 0.0 0.0 0.00 0.00 0.00 82 1020.6
20260507074049 50 139 0.0 0.0 0.00 0.00 0.00 82 1020.6
20260507073545 50 143 0.0 0.0 0.00 0.00 0.00 82 1020.4
20260507073041 50 142 0.0 0.0 0.00 0.00 0.00 82 1020.5
20260507072539 50 132 0.0 0.0 0.00 0.00 0.00 82 1020.5
20260507072036 50 130 0.0 0.0 0.00 0.00 0.00 83 1020.8
20260507071533 50 130 0.0 0.0 0.00 0.00 0.00 83 1020.8
20260507071030 50 129 0.0 0.0 0.00 0.00 0.00 81 1020.7
20260507070527 50 129 0.0 0.0 0.00 0.00 0.00 80 1021.1
20260507070024 50 129 0.0 0.0 0.00 0.00 0.00 80 1020.9
20260507065520 50 129 0.0 0.0 0.00 0.00 0.00 80 1021.0
20260507065018 50 129 0.0 0.0 0.00 0.00 0.00 79 1021.0
20260507064515 50 130 0.0 0.0 0.00 0.00 0.00 79 1021.1
20260507064014 50 130 0.0 0.0 0.00 0.00 0.00 79 1021.1
20260507063510 50 131 0.0 0.0 0.00 0.00 0.00 79 1021.2
20260507063008 50 130 0.0 0.0 0.00 0.00 0.00 80 1021.0
20260507062504 50 130 0.0 0.0 0.00 0.00 0.00 80 1020.8
20260507062002 50 130 0.0 0.0 0.00 0.00 0.00 80 1021.0
20260507061459 50 130 0.0 0.0 0.00 0.00 0.00 81 1021.0
20260507060958 50 130 0.0 0.0 0.00 0.00 0.00 79 1020.9
20260507060454 50 130 0.0 0.0 0.00 0.00 0.00 81 1020.8
20260507055951 50 130 0.0 0.0 0.00 0.00 0.00 80 1021.0
20260507055446 50 130 0.0 0.0 0.00 0.00 0.00 80 1020.9
20260507054943 50 130 0.0 0.0 0.00 0.00 0.00 78 1021.0
20260507054439 50 130 0.0 0.0 0.00 0.00 0.00 79 1021.1
20260507053936 50 127 0.0 0.0 0.00 0.00 0.00 79 1021.5
20260507053434 50 127 0.0 0.0 0.00 0.00 0.00 80 1021.5
20260507052932 50 127 0.0 0.0 0.00 0.00 0.00 81 1020.9
20260507052430 50 127 0.0 0.0 0.00 0.00 0.00 80 1021.2
20260507051927 50 127 0.0 0.0 0.00 0.00 0.00 82 1021.3
20260507051424 50 127 0.0 0.0 0.00 0.00 0.00 83 1021.0
20260507050921 50 127 0.0 0.0 0.00 0.00 0.00 82 1021.0
20260507050418 50 127 0.0 0.0 0.00 0.00 0.00 82 1021.1
20260507045915 50 127 0.0 0.0 0.00 0.00 0.00 82 1021.1
20260507045411 50 127 0.0 0.0 0.00 0.00 0.00 80 1021.2
20260507044908 49 126 0.0 0.0 0.00 0.00 0.00 82 1021.0
20260507044405 49 126 0.0 0.0 0.00 0.00 0.00 82 1020.9
20260507043901 49 127 0.0 0.0 0.00 0.00 0.00 82 1021.0
20260507043357 49 127 0.0 0.0 0.00 0.00 0.00 81 1020.9
20260507042854 49 127 0.0 0.0 0.00 0.00 0.00 82 1020.9
20260507042350 49 127 0.0 0.0 0.00 0.00 0.00 82 1020.9
20260507041846 49 127 0.0 0.0 0.00 0.00 0.00 80 1020.5
20260507041343 50 127 0.0 0.0 0.00 0.00 0.00 78 1020.8
20260507040841 50 127 0.0 0.0 0.00 0.00 0.00 79 1020.7
20260507040336 50 127 0.0 0.0 0.00 0.00 0.00 77 1020.8
20260507035832 51 127 0.0 0.0 0.00 0.00 0.00 76 1020.6
20260507035328 51 127 0.0 0.0 0.00 0.00 0.00 74 1020.8
20260507034826 51 127 0.0 0.0 0.00 0.00 0.00 74 1020.8
20260507034322 52 127 0.0 0.0 0.00 0.00 0.00 74 1021.0
20260507033821 52 127 0.0 0.0 0.00 0.00 0.00 74 1020.7
20260507033318 52 126 0.0 0.0 0.00 0.00 0.00 73 1021.1
20260507032815 52 127 0.0 0.0 0.00 0.00 0.00 74 1020.9
20260507032311 52 127 0.0 0.0 0.00 0.00 0.00 75 1020.8
20260507031808 52 127 0.0 0.0 0.00 0.00 0.00 73 1020.6
20260507031305 53 127 0.0 0.0 0.00 0.00 0.00 71 1020.6
20260507030801 53 127 0.0 0.0 0.00 0.00 0.00 71 1020.7
20260507030259 53 127 0.0 0.0 0.00 0.00 0.00 72 1020.6
20260507025756 53 128 0.0 0.0 0.00 0.00 0.00 75 1020.7
20260507025253 53 128 0.0 0.0 0.00 0.00 0.00 74 1020.6
20260507024751 53 127 0.0 0.0 0.00 0.00 0.00 73 1020.6
20260507024248 53 127 0.0 0.0 0.00 0.00 0.00 71 1020.7
20260507023743 53 127 0.0 0.0 0.00 0.00 0.00 69 1020.6
20260507023240 53 127 0.0 0.0 0.00 0.00 0.00 69 1020.5
20260507022738 53 127 0.0 0.0 0.00 0.00 0.00 71 1020.5
20260507022233 53 127 0.0 0.0 0.00 0.00 0.00 70 1020.6
20260507021730 54 127 0.0 0.0 0.00 0.00 0.00 70 1020.5
20260507021225 54 127 0.0 0.0 0.00 0.00 0.00 68 1020.3
20260507020724 54 127 0.0 0.0 0.00 0.00 0.00 68 1020.3
20260507020220 54 129 0.0 0.0 0.00 0.00 0.00 70 1020.3
20260507015718 54 130 0.0 0.0 0.00 0.00 0.00 69 1020.2
20260507015215 54 130 0.0 0.0 0.00 0.00 0.00 69 1020.0
20260507014712 55 130 0.0 0.0 0.00 0.00 0.00 69 1020.0
20260507014208 55 130 0.0 0.0 0.00 0.00 0.00 67 1019.9
20260507013705 55 130 0.0 0.0 0.00 0.00 0.00 67 1020.0
20260507013202 55 130 0.0 0.0 0.00 0.00 0.00 66 1019.7
20260507012659 55 130 0.0 0.0 0.00 0.00 0.00 64 1019.7
20260507012155 55 130 0.0 0.0 0.00 0.00 0.00 63 1019.7
20260507011653 56 130 0.0 0.0 0.00 0.00 0.00 59 1019.6
20260507011149 56 130 0.0 0.0 0.00 0.00 0.00 59 1019.3
20260507010644 56 130 0.0 0.0 0.00 0.00 0.00 58 1019.5
20260507010140 56 130 0.0 0.0 0.00 0.00 0.00 58 1019.7
20260507005637 57 131 0.0 0.0 0.00 0.00 0.00 57 1019.5
20260507005133 57 133 0.0 0.0 0.00 0.00 0.00 57 1019.5
20260507004630 57 117 0.0 0.0 0.00 0.00 0.00 56 1019.7